Novato, CA

12:24 AM PST on November 18, 2019 (GMT -0800)
Gnoss

Weather History for KDVO - September, 2019

Change the Weather History Date:

Wednesday, September 25, 2019

  Actual Average (KAPC) Record (KAPC)
Temperature  
Mean Temperature 76 °F -  
Max Temperature 98 °F 83 °F 99 °F (2016)
Min Temperature 53 °F 53 °F 37 °F (2005)
Cooling Degree Days 10    
Growing Degree Days 26 (Base 50)    
Moisture  
Dew Point 52 °F    
Average Humidity 46    
Maximum Humidity 72    
Minimum Humidity 22    
Precipitation  
Precipitation 0.00 in - - ()
Sea Level Pressure  
Sea Level Pressure 29.76 in    
Wind  
Wind Speed 2 mph ()    
Max Wind Speed 13 mph    
Max Gust Speed 13 mph    
Visibility 9.5 miles    
Events      
Averages and records for this station are not official NWS values.
T = Trace of Precipitation, MM = Missing Value Source: Averaged Metar Reports

Daily Weather History Graph

Daily Weather History Graph

Search for Another Location

Airport or City:

Astronomy

Sep. 25, 2019 Rise Set
Actual Time 7:00 AM PDT 7:02 PM PDT
Civil Twilight 6:34 AM PDT 7:28 PM PDT
Nautical Twilight 6:03 AM PDT 7:59 PM PDT
Astronomical Twilight 5:32 AM PDT 8:30 PM PDT
Moon 3:05 AM PDT (9/25) 5:34 PM PDT (9/25)
Length of Visible Light 12h 54m
Length of Day
12h 02m
Waning Crescent, 13% of the Moon is Illuminated
Sep 25
Waning Crescent
Sep 28
New
Oct 5
First Quarter
Oct 13
Full
Oct 21
Last Quarter

Hourly Weather History & Observations

Time (PDT) Temp. Heat Index Dew Point Humidity Pressure Visibility Wind Dir Wind Speed Gust Speed Precip Events Conditions
12:15 AM 62.6 °F - 48.2 °F 59% 29.83 in 10.0 mi Calm Calm - N/A   Clear
12:35 AM 66.2 °F - 48.2 °F 52% 29.82 in 10.0 mi Calm Calm - N/A   Clear
12:55 AM 64.4 °F - 50.0 °F 59% 29.82 in 10.0 mi South 3.5 mph - N/A   Clear
1:15 AM 64.4 °F - 50.0 °F 59% 29.82 in 10.0 mi Calm Calm - N/A   Clear
1:35 AM 60.8 °F - 48.2 °F 63% 29.82 in 10.0 mi Calm Calm - N/A   Clear
1:55 AM 60.8 °F - 48.2 °F 63% 29.82 in 10.0 mi Calm Calm - N/A   Clear
2:15 AM 62.6 °F - 50.0 °F 63% 29.81 in 10.0 mi Calm Calm - N/A   Clear
2:35 AM 60.8 °F - 48.2 °F 63% 29.81 in 10.0 mi Calm Calm - N/A   Clear
2:55 AM 60.8 °F - 46.4 °F 59% 29.80 in 10.0 mi Calm Calm - N/A   Clear
3:15 AM 60.8 °F - 48.2 °F 63% 29.80 in 10.0 mi Calm Calm - N/A   Clear
3:35 AM 59.0 °F - 48.2 °F 67% 29.79 in 10.0 mi Calm Calm - N/A   Clear
3:55 AM 55.4 °F - 42.8 °F 63% 29.79 in 10.0 mi Calm Calm - N/A   Clear
4:15 AM 55.4 °F - 46.4 °F 72% 29.79 in 10.0 mi Calm Calm - N/A   Clear
4:35 AM 60.8 °F - 48.2 °F 63% 29.79 in 10.0 mi Calm Calm - N/A   Clear
4:55 AM 59.0 °F - 46.4 °F 63% 29.79 in 10.0 mi Calm Calm - N/A   Clear
5:15 AM 60.8 °F - 48.2 °F 63% 29.79 in 10.0 mi Calm Calm - N/A   Clear
5:35 AM 53.6 °F - 42.8 °F 67% 29.79 in 10.0 mi Calm Calm - N/A   Clear
5:55 AM 59.0 °F - 46.4 °F 63% 29.79 in 10.0 mi Calm Calm - N/A   Clear
6:15 AM 59.0 °F - 46.4 °F 63% 29.79 in 10.0 mi Calm Calm - N/A   Clear
6:35 AM 60.8 °F - 50.0 °F 68% 29.79 in 10.0 mi Calm Calm - N/A   Clear
6:55 AM 60.8 °F - 50.0 °F 68% 29.80 in 10.0 mi Calm Calm - N/A   Clear
7:15 AM 55.4 °F - 44.6 °F 67% 29.80 in 10.0 mi Calm Calm - N/A   Clear
7:35 AM 59.0 °F - 46.4 °F 63% 29.81 in 10.0 mi Calm Calm - N/A   Clear
7:55 AM 62.6 °F - 48.2 °F 59% 29.81 in 10.0 mi Calm Calm - N/A   Clear
8:15 AM 64.4 °F - 50.0 °F 59% 29.81 in 10.0 mi Calm Calm - N/A   Clear
8:35 AM 69.8 °F - 50.0 °F 49% 29.81 in 10.0 mi Calm Calm - N/A   Clear
8:55 AM 73.4 °F - 50.0 °F 44% 29.81 in 10.0 mi Calm Calm - N/A   Clear
9:15 AM 77.0 °F - 48.2 °F 36% 29.81 in 10.0 mi Calm Calm - N/A   Clear
9:35 AM 78.8 °F - 48.2 °F 34% 29.82 in 10.0 mi Calm Calm - N/A   Clear
9:55 AM 80.6 °F - 50.0 °F 34% 29.81 in 10.0 mi Calm Calm - N/A   Clear
10:15 AM 82.4 °F 81.4 °F 53.6 °F 37% 29.81 in 10.0 mi ESE 6.9 mph - N/A   Clear
10:35 AM 84.2 °F 83.0 °F 55.4 °F 37% 29.81 in 10.0 mi ESE 6.9 mph - N/A   Clear
10:55 AM 86.0 °F 84.9 °F 57.2 °F 37% 29.81 in 10.0 mi SE 8.1 mph - N/A   Clear
11:15 AM 87.8 °F 86.5 °F 57.2 °F 35% 29.80 in 7.0 mi Variable 6.9 mph 12.7 mph N/A   Clear
11:35 AM 89.6 °F 88.1 °F 57.2 °F 33% 29.79 in 5.0 mi SE 8.1 mph - N/A   Haze
11:55 AM 89.6 °F 88.1 °F 57.2 °F 33% 29.79 in 8.0 mi SSE 8.1 mph - N/A   Clear
12:15 PM 87.8 °F 86.5 °F 57.2 °F 35% 29.78 in 10.0 mi SSE 11.5 mph - N/A   Clear
12:35 PM 87.8 °F 86.1 °F 55.4 °F 33% 29.78 in 9.0 mi Variable 6.9 mph - N/A   Clear
1:15 PM 93.2 °F 91.3 °F 55.4 °F 28% 29.75 in 5.0 mi South 8.1 mph - N/A   Haze
1:35 PM 95.0 °F 93.0 °F 55.4 °F 26% 29.74 in 5.0 mi Variable 5.8 mph 12.7 mph N/A   Haze
1:55 PM 95.0 °F 93.0 °F 55.4 °F 26% 29.73 in 3.0 mi Variable 4.6 mph - N/A   Haze
2:15 PM 96.8 °F 95.1 °F 55.4 °F 25% 29.72 in 5.0 mi SSE 6.9 mph - N/A   Haze
2:35 PM 96.8 °F 95.1 °F 55.4 °F 25% 29.71 in 7.0 mi Variable 5.8 mph - N/A   Clear
2:55 PM 98.6 °F 97.2 °F 55.4 °F 24% 29.71 in 9.0 mi SSE 5.8 mph 11.5 mph N/A   Clear
3:15 PM 98.6 °F 97.2 °F 55.4 °F 24% 29.70 in 9.0 mi SE 8.1 mph - N/A   Clear
3:35 PM 98.6 °F 97.6 °F 57.2 °F 25% 29.70 in 10.0 mi SSE 10.4 mph - N/A   Clear
3:55 PM 98.6 °F 97.2 °F 55.4 °F 24% 29.70 in 9.0 mi SE 9.2 mph - N/A   Clear
4:15 PM 98.6 °F 97.2 °F 55.4 °F 24% 29.70 in 10.0 mi SE 5.8 mph - N/A   Clear
4:35 PM 96.8 °F 94.4 °F 53.6 °F 23% 29.69 in 10.0 mi SW 12.7 mph - N/A   Clear
4:55 PM 96.8 °F 94.4 °F 53.6 °F 23% 29.69 in 10.0 mi SW 9.2 mph - N/A   Clear
5:15 PM 96.8 °F 94.4 °F 53.6 °F 23% 29.70 in 10.0 mi Variable 4.6 mph - N/A   Clear
5:35 PM 96.8 °F - 51.8 °F 22% 29.70 in 10.0 mi NW 5.8 mph - N/A   Clear
5:55 PM 95.0 °F - 51.8 °F 23% 29.70 in 10.0 mi WSW 3.5 mph - N/A   Clear
6:15 PM 93.2 °F - 51.8 °F 24% 29.70 in 10.0 mi Calm Calm - N/A   Clear
6:35 PM 86.0 °F 84.2 °F 53.6 °F 33% 29.70 in 10.0 mi Calm Calm - N/A   Clear
6:55 PM 86.0 °F 84.2 °F 53.6 °F 33% 29.70 in 10.0 mi Calm Calm - N/A   Clear
7:15 PM 86.0 °F 84.2 °F 53.6 °F 33% 29.70 in 10.0 mi Calm Calm - N/A   Clear
7:35 PM 84.2 °F 82.8 °F 53.6 °F 35% 29.71 in 10.0 mi East 4.6 mph - N/A   Clear
7:55 PM 82.4 °F - 51.8 °F 35% 29.71 in 10.0 mi ENE 4.6 mph - N/A   Clear
8:15 PM 80.6 °F - 51.8 °F 37% 29.72 in 10.0 mi Calm Calm - N/A   Clear
8:35 PM 80.6 °F - 51.8 °F 37% 29.72 in 10.0 mi Calm Calm - N/A   Clear
8:55 PM 80.6 °F 80.3 °F 53.6 °F 39% 29.73 in 10.0 mi Calm Calm - N/A   Clear
9:15 PM 77.0 °F - 53.6 °F 44% 29.73 in 10.0 mi SSW 4.6 mph - N/A   Clear
9:35 PM 75.2 °F - 55.4 °F 50% 29.73 in 10.0 mi Calm Calm - N/A   Clear
9:55 PM 71.6 °F - 53.6 °F 53% 29.73 in 10.0 mi North 3.5 mph - N/A   Clear
10:15 PM 69.8 °F - 57.2 °F 64% 29.73 in 10.0 mi North 4.6 mph - N/A   Clear
10:35 PM 71.6 °F - 55.4 °F 57% 29.73 in 10.0 mi Calm Calm - N/A   Clear
10:55 PM 66.2 °F - 51.8 °F 60% 29.74 in 10.0 mi Calm Calm - N/A   Clear
11:15 PM 64.4 °F - 51.8 °F 64% 29.74 in 10.0 mi Calm Calm - N/A   Clear
11:35 PM 68.0 °F - 55.4 °F 64% 29.74 in 10.0 mi Calm Calm - N/A   Clear
11:55 PM 69.8 °F - 55.4 °F 60% 29.74 in 10.0 mi Calm Calm - N/A   Clear